STARLINK-34150, 63998

Orbit data source: Space-Track

STARLINK-34150, 63998 is a payload satellite owned by SpaceX/Seattle (US) in LEO that was launched on Wed, 14 May 2025 UTC via an FALCON 9 launch vehicle from the Air Force Eastern Test Range (AFETR). Payload-class satellites include a variety of spacecraft equipped with specific instruments for various scientific and technological missions. These include communications satellites like Starlink; space stations such as the ISS; scientific satellites like the Hubble; Earth observation satellites from companies like Planet Labs, Umbra, and HawkEye 360; GPS; miniature CubeSats for education and research; and military/defense satellites.

Loading next visibility...
Identifier
63998, 2025-101E
Orbit
LEO
Country
Flag of USUS
Related business
Manufacturer
SpaceX/Seattle
Mission
Operational Commercial Communications
Bus & Motor
STARLINK V2MO, Unknown motor
Mass
575 kg wet, ~530 kg dry
Launch date (UTC)
2025-05-14 (1 year ago)
Launch vehicle
FALCON 9
Launch site
Air Force Eastern Test Range (AFETR)
Object type
Payload
Rocket body
Debris
Shape & HBR
Box + 2 Pan, 17.7 m
Radar Cross Section
36.964 m², Large (>1 m²)

Expand to show TLE details & history
Last TLE update: 13 hours ago

TLE from 13 hours ago
0 STARLINK-34150
1 63998U 25101E   26171.28710015  .00010992  00000-0  40823-3 0  9996
2 63998  43.0007 138.7716 0000762 313.9160  46.1629 15.27591345 62741
Epoch: 2026-06-20T06:53Z
TLE epoch observation values (Epoch: 2026-06-20T06:53:25.452Z)
Latitude
-0.00002°
Longitude
126.91164°
Altitude
482.429 km
Speed
7.626 km/s
True Right ascension
09h 15m 05s
True Declination
0° 00' 00"
Sunlit
Object was in daylight at epoch
Visualization orbit readout
Latitude
Unknown
Longitude
Unknown
Altitude
Unknown
Speed
Unknown
Apparent Right ascension
Unknown
Apparent Declination
Unknown
Sunlit
N/A
Visualization observer readout
Local Sidereal Time
07:14:49
Azimuth
Unknown
Elevation
Unknown
Doppler factor
Unknown
Orbital elements
Apogee altitude
485.483 km
Perigee altitude
484.437 km
Semi-major axis
6,863.097 km
Eccentricity
0.00008
Inclination
43.0007°
RAAN
138.7716°
Arg. of periapsis
313.916°
True anomaly
46.1692°
Mean anomaly
46.1629°
Eccentric anomaly
46.16605°
Mean motion
3.81736 °/min
Orbital period
94.31 mins
BSTAR
0.00040823
Loading maneuver chart data...
Computing Atmospheric mass density...
Loading historical data...
Loading historical data...
Loading historical data...
Loading historical data...
Loading historical data...
Loading historical data...
Loading historical data...

Documentation

Showing up to 5 results
|